Starlink 31351

operational
NORAD ID: 58972 Int'l Des: 2024-031 Owner: SPXS Country: US Constellation: starlink
LEOCIRCULAR

About Starlink 31351

Description loading...

Live Position

Loading 3D Globe...

Upcoming Passes

Altitude History

Altitude vs Time

uPlot chart will show altitude changes over time

Two-Line Element Set

1 58972U 24031H 25305.60386231 .00000936 00000-0 43724-4 0 9997
2 58972 53.1598 171.5723 0001326 86.6296 273.4857 15.30195067 96917
Epoch: Nov 1, 2025 • Age: 20 hours

Current Status

Altitude 482.4 km
Velocity 7.62 km/s
Sub-Earth Point -23.35°S, 171.35°E
Launch Date Feb 15, 2024
Age 1.7 years
Type internet

Technical Details

Classification Payload
Mass 730.00 kg
Dry Mass 700.00 kg
Total Mass 730.00 kg
Length 0.30 m
Diameter 4.10 m
Span 29.00 m
Shape Box + pan
Manufacturer SPXS
Bus Type Starlink V2M
Phase Status In Orbit
Owner/State SPXS/US

Large Constellations

Loading constellations...